Powrót do katalogu

DELTA 1 DEB

AktywnySSO
NORAD 7031·DEBRIS·🇺🇸 United States

Wystrzelony Nov 6, 1973 z Vandenberg Space Force Base

Loading…

Następne Przeloty (najbliższe 24 godziny)

TLE

ŚwieżeSource: Space-Track

Epoka: Sep 14, 2026, 08:58 UTC

1 07031U 73086X   26257.37383725 -.00000024  00000-0  15136-3 0  9991
2 07031 101.8542 217.6058 0010182 255.5721 258.5027 12.38764016389009

Śledź DELTA 1 DEB w czasie rzeczywistym z AllMySat

Download on the App Store